Tracking 30995 objects as of 6-Jul-2025
HD Live streaming from Space Station
objects crossing your sky now

COSMOS 249 DEB

Track COSMOS 249 DEB now!
10-day predictions


NORAD ID: 6764
Int'l Code: 1968-091CK
Perigee: 932.7 km
Apogee: 2,111.3 km
Inclination: 62.3 °
Period: 116.3 minutes
Semi major axis: 7892 km
RCS: 0.0142 m2 (small)
Launch date: October 20, 1968
Source: Commonwealth of Independent States (former USSR) (CIS)
Launch site: TYURATAM MISSILE AND SPACE COMPLEX (TTMTR)

Note: This is SATELLITE DEBRIS
Your satellite tracking list
Your tracking list is empty




NASA's NSSDC Master Catalog

Two Line Element Set (TLE):
1 06764U 68091CK  25185.83069145  .00000438  00000-0  14890-2 0  9993
2 06764  62.3384 109.8845 0746628 292.2168  95.3876 12.38060674682167
Source of the keplerian elements: AFSPC